TimeEST,TemperatureF,Dew PointF,Humidity,Sea Level PressureIn,VisibilityMPH,Wind Direction,Wind SpeedMPH,Gust SpeedMPH,PrecipitationIn,Events,Conditions,WindDirDegrees,DateUTC
12:55 AM,33.8,33.6,99,29.83,3.0,North,11.5,-,0.01,,Light Drizzle,10,2012-12-18 05:55:00
1:55 AM,34.5,34.2,99,29.81,3.0,NNE,10.4,-,0.00,Rain,Light Rain,30,2012-12-18 06:55:00
2:55 AM,35.4,35.2,99,29.75,3.0,NNE,8.1,-,0.05,Rain,Light Rain,30,2012-12-18 07:55:00
3:55 AM,36.1,36.0,99,29.71,3.0,NNE,10.4,-,0.09,Rain,Rain,30,2012-12-18 08:55:00
4:55 AM,36.7,36.3,99,29.68,2.0,North,5.8,-,0.27,Rain,Rain,10,2012-12-18 09:55:00
5:55 AM,43.9,43.5,99,29.65,2.5,ENE,9.2,21.9,0.25,Rain,Light Rain,70,2012-12-18 10:55:00
6:55 AM,45.0,44.6,99,29.62,2.5,ENE,15.0,21.9,0.18,Rain,Light Rain,70,2012-12-18 11:55:00
7:55 AM,45.5,45.3,99,29.59,2.0,ENE,17.3,24.2,0.22,Rain,Rain,70,2012-12-18 12:55:00
8:55 AM,46.2,46.0,99,29.55,3.0,East,16.1,-,0.20,Rain,Light Rain,80,2012-12-18 13:55:00
9:29 AM,46.4,46.4,100,29.54,1.5,East,13.8,20.7,N/A,Rain,Light Rain,80,2012-12-18 14:29:00
9:55 AM,47.3,47.1,99,29.54,3.0,East,12.7,19.6,0.01,Rain,Light Rain,80,2012-12-18 14:55:00
10:55 AM,48.6,48.2,99,29.49,3.0,East,12.7,24.2,0.01,Rain,Light Rain,100,2012-12-18 15:55:00
11:55 AM,48.6,48.4,99,29.46,1.0,East,11.5,19.6,0.02,Rain,Light Rain,90,2012-12-18 16:55:00
12:15 PM,48.2,48.2,100,29.45,0.6,East,11.5,-,N/A,Rain,Light Rain,80,2012-12-18 17:15:00
12:55 PM,48.9,48.7,99,29.42,0.8,East,10.4,18.4,0.07,Rain,Light Rain,90,2012-12-18 17:55:00
1:55 PM,49.3,49.1,99,29.40,0.6,ENE,10.4,-,0.02,,Light Drizzle,60,2012-12-18 18:55:00
2:55 PM,48.9,48.7,99,29.40,0.5,NE,4.6,-,0.01,Fog,Light Drizzle,50,2012-12-18 19:55:00
3:02 PM,48.2,48.2,100,29.40,0.2,NE,5.8,-,N/A,Fog,Light Drizzle,40,2012-12-18 20:02:00
3:55 PM,47.8,47.5,99,29.38,0.8,NW,9.2,-,0.00,,Light Drizzle,310,2012-12-18 20:55:00
4:31 PM,46.4,46.4,100,29.37,1.0,NW,10.4,-,N/A,,Light Drizzle,320,2012-12-18 21:31:00
4:55 PM,44.8,44.6,99,29.37,1.0,NW,9.2,-,0.00,,Overcast,320,2012-12-18 21:55:00
5:44 PM,44.6,42.8,93,29.37,1.5,West,5.8,-,N/A,,Overcast,260,2012-12-18 22:44:00
5:55 PM,43.5,43.2,99,29.38,1.5,WSW,8.1,-,0.00,,Light Drizzle,250,2012-12-18 22:55:00
6:55 PM,42.4,42.1,99,29.39,1.5,WSW,9.2,-,0.00,,Light Drizzle,250,2012-12-18 23:55:00
7:35 PM,42.8,42.8,100,29.39,2.0,West,9.2,-,N/A,,Light Drizzle,280,2012-12-19 00:35:00
7:55 PM,42.1,41.7,99,29.38,2.0,WNW,9.2,-,0.00,,Light Drizzle,290,2012-12-19 00:55:00
8:55 PM,40.3,40.1,99,29.40,1.5,WNW,9.2,-,0.00,,Light Drizzle,290,2012-12-19 01:55:00
9:55 PM,39.4,39.2,99,29.40,5.0,WNW,11.5,-,0.00,,Light Drizzle,300,2012-12-19 02:55:00
10:44 PM,39.2,39.2,100,29.39,6.0,WNW,10.4,-,N/A,,Overcast,300,2012-12-19 03:44:00
10:55 PM,39.2,39.0,99,29.40,6.0,NW,11.5,18.4,0.00,,Overcast,310,2012-12-19 03:55:00
11:55 PM,39.0,38.5,98,29.40,3.0,WNW,9.2,-,0.00,,Light Drizzle,290,2012-12-19 04:55:00